Wind_Speed
33 30 31 30 28 27 25 24 23 20 19 17 17 17 17 18 16 18 18 13 14 15 13 13 8 7 8 6 5 5 5 4 3 3 2 1 0 1 2 2 4 2 3 3 1 5 9 9 14 11 13 13 16 17
36 33 32 31 29 28 26 24 22 20 18 18 18 17 18 19 17 17 17 14 11 18 13 6 3 6 8 7 7 4 4 2 2 5 6 1 2 3 4 2 2 2 1 7 8 11 27 25 18 12 8 8 9 12
34 33 33 31 29 27 26 24 22 20 18 17 15 15 16 17 18 19 16 16 16 24 17 14 11 12 12 10 10 9 8 7 6 4 10 4 3 3 2 2 6 8 9 9 13 2 11 14 13 5 7 9 6 11
34 33 32 29 28 27 26 24 21 18 16 16 15 15 14 13 14 18 20 14 14 23 19 14 8 4 9 14 12 12 11 8 8 10 10 5 2 4 5 7 11 13 11 8 3 2 6 11 14 10 12 14 13 15
33 33 31 29 28 27 24 22 20 17 17 17 15 15 15 14 16 17 17 15 15 16 8 3 0 8 13 8 11 11 11 11 7 6 7 8 5 5 5 8 8 5 4 6 8 5 2 4 1 4 4 8 8 8
30 31 29 28 27 26 23 22 19 17 18 17 16 15 14 16 16 14 17 19 19 19 16 17 10 12 13 19 12 12 9 10 10 7 11 8 4 5 5 5 3 3 4 6 4 3 3 4 4 7 6 4 5 6
30 28 29 28 27 24 23 21 19 19 15 14 16 15 14 16 16 16 13 12 11 13 19 12 9 10 6 11 14 14 13 10 11 13 15 13 11 9 10 12 8 6 5 7 6 5 5 5 7 10 13 11 10 11
29 28 28 28 26 25 24 21 21 21 19 18 18 15 13 15 14 12 13 10 7 13 14 7 6 10 11 12 15 16 13 13 13 14 16 14 12 11 9 13 14 12 13 11 9 8 10 10 11 14 15 14 14 15
27 27 28 27 26 24 23 24 27 24 23 22 20 16 16 14 14 11 12 8 7 12 7 7 8 8 7 10 12 13 14 16 15 18 16 11 15 11 13 13 14 14 15 13 13 14 15 18 19 21 19 16 16 18
26 26 25 25 24 24 26 28 28 27 26 25 21 22 19 16 14 11 12 11 9 12 13 7 10 7 3 7 9 12 10 14 7 12 15 20 27 25 22 22 21 19 18 18 21 22 23 23 22 20 18 19 20 22
24 23 23 23 24 26 30 29 26 27 27 30 26 26 17 18 14 16 11 13 10 8 11 13 13 11 7 9 16 7 3 6 5 8 6 6 15 18 18 22 23 21 19 20 21 17 14 15 18 19 19 20 21 22
22 22 21 22 25 28 30 29 31 35 34 34 27 26 25 15 10 11 11 10 8 10 6 9 12 17 11 8 14 12 7 7 4 6 6 5 15 16 18 18 18 18 15 14 15 16 15 15 15 15 15 15 16 17
21 20 15 17 23 27 30 34 31 33 32 35 33 24 22 14 10 11 15 12 15 6 11 9 12 16 11 3 10 7 6 5 4 5 5 11 12 11 9 10 11 13 15 15 13 12 12 11 10 10 10 10 10 11
13 13 12 14 20 24 29 32 33 35 36 36 21 20 15 9 10 11 20 26 18 15 5 10 11 13 11 3 5 5 6 4 5 6 6 10 10 10 10 10 11 13 14 13 12 10 9 9 8 8 7 8 8 7
16 14 16 16 22 28 30 33 33 34 42 18 12 13 18 17 12 10 15 21 16 15 11 8 13 8 11 4 5 5 4 5 5 6 7 7 8 9 10 12 12 9 7 6 6 8 8 9 9 8 8 7 7 7
16 19 19 19 24 31 33 34 31 41 22 14 11 14 24 11 19 16 14 16 17 16 12 16 9 7 7 5 6 6 4 5 5 7 7 8 9 11 10 5 3 4 5 6 7 8 10 10 11 11 12 12 11 11
21 21 22 22 24 29 37 42 37 32 19 9 14 21 26 18 21 22 18 16 16 16 21 11 8 6 5 5 6 5 7 11 10 9 9 10 7 3 2 2 4 5 7 9 10 12 13 15 15 15 16 16 16 16
22 20 24 29 28 26 27 27 18 10 14 18 17 16 17 19 21 19 20 19 19 16 25 9 5 7 3 3 6 9 10 10 8 9 6 3 1 2 4 6 8 9 11 13 15 16 17 18 18 19 19 19 19 20
21 22 20 19 27 26 15 22 17 13 21 19 13 15 16 17 17 19 18 25 23 19 21 12 5 5 8 8 8 8 8 7 5 2 2 2 4 6 7 10 12 14 16 17 17 18 19 20 21 21 20 20 20 21
23 20 19 19 20 26 12 11 13 11 16 15 12 14 16 17 18 23 18 17 16 17 21 12 9 6 6 7 7 5 2 3 2 1 3 5 7 9 11 13 15 16 17 18 18 19 19 19 19 20 20 20 20 21
17 22 24 21 17 18 9 12 17 12 15 16 15 17 19 18 18 20 21 20 18 20 22 16 12 10 7 5 3 3 3 1 2 4 6 8 10 11 14 16 17 18 18 18 17 17 18 18 19 20 20 21 22 22
15 16 16 12 7 4 7 11 13 17 19 21 20 21 22 21 20 20 19 19 17 15 13 10 8 7 5 5 5 4 2 2 5 7 9 12 13 14 15 15 14 14 14 15 16 17 18 19 20 20 20 20 20 21
17 14 11 6 2 5 12 18 18 16 15 21 21 19 20 21 20 19 15 18 16 13 11 8 7 7 8 7 4 2 3 5 8 9 10 11 12 12 12 13 13 14 15 16 17 18 19 19 20 20 20 19 18 18
15 14 8 3 2 4 16 13 14 16 16 20 19 13 18 17 17 16 13 11 14 12 10 10 12 11 8 5 2 3 5 6 8 10 11 12 12 12 12 13 14 15 16 17 18 19 20 20 19 19 18 17 17 16
14 9 4 5 4 9 10 13 15 12 20 18 17 11 14 14 13 11 12 11 12 13 14 14 11 8 5 4 4 3 5 8 10 12 13 13 13 13 14 15 16 17 18 19 19 20 20 19 19 19 18 17 16 15
7 5 7 10 10 11 9 10 12 11 17 16 12 10 13 11 8 4 11 16 17 15 13 12 10 6 6 3 3 5 8 10 12 12 13 12 12 14 15 17 18 19 19 19 18 18 18 18 18 18 18 17 16 15
5 3 10 11 12 11 11 11 9 13 18 10 14 11 12 7 6 12 18 17 17 15 12 9 7 5 2 3 5 8 10 12 13 14 14 14 14 15 16 18 19 19 18 17 16 16 17 18 18 18 18 17 17 16
7 3 8 11 13 13 11 14 13 17 13 11 15 14 10 7 7 17 19 18 15 13 10 8 5 2 3 5 7 10 12 14 15 16 16 16 16 17 17 19 18 17 16 16 16 16 17 17 17 17 16 16 16 16
6 7 7 11 12 13 12 13 10 12 12 9 15 15 6 9 10 21 19 17 13 12 10 6 3 3 5 7 9 12 14 15 16 17 17 17 18 19 20 19 18 18 17 17 16 16 16 16 17 17 17 17 17 17
10 10 10 13 14 12 13 13 11 12 10 14 17 11 8 9 18 20 19 16 14 10 7 4 3 4 6 9 11 13 15 16 17 18 18 19 19 19 19 18 17 17 17 17 17 17 17 17 17 18 18 18 19 19
13 15 14 15 16 13 14 14 14 13 13 19 16 9 7 11 16 17 16 14 12 9 6 4 4 6 8 10 12 14 16 17 18 18 19 19 18 17 17 16 16 17 17 17 17 18 18 18 19 20 20 21 21 22
14 17 16 17 17 15 16 16 15 12 18 20 13 11 11 13 14 14 14 12 9 7 5 5 6 8 10 12 14 16 17 18 19 19 19 18 17 16 16 16 16 16 17 17 18 18 20 20 21 22 23 23 23 24
14 14 15 15 15 16 17 15 13 14 19 17 13 14 16 16 16 15 13 9 6 5 5 6 7 9 12 13 15 16 17 18 19 19 18 16 15 15 15 16 16 17 17 18 20 21 22 23 24 24 24 24 25 25
Wind_Direction
242 238 240 243 247 249 250 249 250 253 256 257 254 247 227 220 222 228 235 243 268 279 284 278 270 266 249 240 249 292 301 313 320 28 356 16 352 197 288 261 289 312 311 316 225 252 259 269 308 290 290 271 297 295
242 241 241 243 246 247 244 242 245 249 253 256 251 231 221 219 221 227 240 243 257 267 270 288 281 271 259 250 246 249 271 306 82 21 9 320 280 261 277 298 351 318 319 294 277 272 278 290 297 305 300 254 274 282
240 240 241 241 242 243 241 236 239 244 249 246 229 214 218 219 222 226 235 243 243 260 288 264 268 248 246 239 233 239 231 264 291 291 5 344 258 263 280 276 309 307 297 278 307 81 239 265 275 262 253 219 244 272
236 237 237 236 236 235 236 236 235 239 239 224 211 209 218 217 225 232 229 235 255 255 275 264 256 257 270 238 233 233 238 258 284 286 339 324 294 277 295 294 304 308 311 303 308 296 217 244 204 218 239 250 259 260
232 233 233 230 230 229 227 233 232 231 220 213 212 215 216 216 221 225 229 243 245 242 253 163 270 288 230 229 238 233 229 245 246 283 293 301 318 306 320 299 300 317 77 43 19 17 197 217 162 164 214 260 274 266
231 230 227 226 224 222 221 222 226 211 211 212 210 208 203 210 204 222 238 239 234 244 248 267 292 279 248 223 224 205 226 230 223 231 285 268 317 310 304 281 317 255 29 20 38 15 45 61 46 7 348 282 257 260
228 226 223 220 217 215 217 215 208 199 198 193 191 193 186 180 201 205 227 237 232 224 233 262 254 241 208 200 206 199 214 219 224 228 261 262 270 274 278 272 276 271 264 282 275 260 272 272 293 306 307 294 275 283
223 221 217 214 211 210 210 203 193 188 184 177 169 174 177 194 211 216 227 232 226 208 221 212 216 206 216 213 210 214 231 239 233 233 258 265 267 268 259 274 267 260 247 262 269 273 272 281 282 303 297 281 277 282
216 214 211 210 208 205 202 194 189 187 185 181 166 174 186 200 209 208 221 204 197 193 196 206 200 199 215 222 219 229 231 225 237 237 247 265 260 248 260 259 275 278 259 267 277 280 286 285 283 285 284 277 281 284
209 207 207 207 204 202 194 191 190 188 185 175 176 195 202 201 202 221 202 199 195 214 226 212 187 188 214 215 190 200 215 218 241 258 258 256 258 261 262 265 275 284 279 272 278 284 286 283 281 279 275 279 284 287
202 201 202 203 201 196 193 192 186 178 180 180 191 200 202 193 199 205 188 189 200 226 241 236 218 217 221 216 204 219 200 210 231 241 224 247 258 267 268 268 271 274 273 276 278 280 280 275 272 272 273 274 277 279
190 191 194 197 199 198 195 191 184 187 190 186 193 198 201 197 196 188 193 198 213 217 229 213 207 204 197 218 195 217 235 210 222 218 218 247 263 275 275 267 264 266 270 274 282 277 275 273 273 275 277 277 275 274
177 174 187 210 215 211 203 192 195 197 196 192 196 178 181 189 188 193 190 185 208 209 214 211 191 181 189 233 192 200 212 231 217 221 233 243 257 257 264 269 264 269 275 278 282 292 300 303 302 300 297 293 286 281
164 157 187 187 179 182 185 183 186 189 194 188 191 164 179 186 206 209 213 221 220 217 214 197 185 180 189 238 168 199 211 217 232 234 246 264 260 259 273 280 289 295 300 308 320 333 341 343 341 336 330 325 319 311
115 136 138 140 154 161 162 168 175 180 178 178 141 164 181 199 189 190 209 209 206 206 218 214 178 176 187 193 197 204 214 224 232 239 267 263 260 271 285 296 303 310 320 336 348 348 346 343 340 336 333 330 324 317
136 118 110 126 137 155 174 170 175 183 168 133 155 172 180 178 180 187 194 204 210 207 199 154 168 180 187 196 207 214 222 230 257 260 268 280 286 293 295 296 305 324 332 328 323 323 321 319 316 313 308 303 299 297
139 124 132 126 127 138 156 162 168 169 182 177 157 165 181 200 196 191 197 195 182 180 172 162 188 187 191 211 222 230 240 258 266 272 280 292 292 283 291 322 318 314 314 313 309 307 303 298 294 293 292 292 293 293
144 141 135 152 146 151 159 170 162 139 152 168 178 185 190 196 199 197 180 181 174 170 177 184 212 216 217 231 250 260 257 265 268 282 284 276 297 322 314 304 302 306 307 304 299 296 295 295 293 291 291 292 292 293
146 145 144 160 164 165 140 144 160 151 160 155 154 169 181 187 185 177 176 178 184 189 191 204 223 228 230 249 269 278 278 282 280 267 287 300 301 301 304 309 310 305 300 299 301 301 300 298 297 297 296 295 294 294
123 141 154 157 165 179 170 165 144 143 168 169 167 170 169 170 171 177 174 182 186 196 196 208 223 248 267 286 300 293 231 188 214 289 316 312 316 315 310 306 303 306 308 308 306 303 301 300 301 302 303 303 301 300
138 141 144 142 152 173 179 175 189 196 184 175 179 176 172 171 170 171 181 191 200 199 206 222 249 268 283 291 247 198 206 250 311 326 325 316 316 317 315 313 310 306 303 303 305 308 309 308 307 307 305 303 303 302
148 140 137 137 127 125 142 157 164 161 165 170 169 170 173 176 181 184 185 192 198 208 222 234 251 250 243 204 202 210 227 309 321 322 324 322 316 308 304 301 303 306 309 311 310 311 312 311 310 309 308 307 305 302
156 155 150 142 93 92 134 144 143 143 147 161 162 167 176 182 188 189 196 208 210 213 221 228 231 218 199 199 204 244 310 326 319 312 311 313 314 314 314 316 316 314 314 315 314 313 312 312 312 312 311 310 308 307
159 161 166 152 89 114 153 158 156 151 158 166 173 176 182 184 185 192 202 209 214 215 212 215 197 191 194 202 236 308 307 301 316 328 330 327 323 318 318 318 318 317 316 315 315 315 316 317 317 317 316 315 315 312
176 168 169 175 162 160 164 171 172 170 171 170 167 166 173 170 183 197 217 223 210 206 196 189 189 194 202 235 259 289 329 335 335 333 330 326 322 320 320 320 320 318 316 314 315 315 316 318 319 319 318 317 316 313
148 165 181 186 182 172 171 178 184 183 177 170 172 168 173 182 193 213 184 171 166 164 174 187 193 205 223 241 321 339 339 335 331 328 327 323 319 318 320 321 319 316 314 314 314 314 315 316 317 317 317 315 314 312
172 186 196 193 193 190 184 183 177 174 174 178 183 180 177 187 189 171 172 171 172 182 189 191 196 205 234 320 330 333 332 331 330 328 327 324 322 321 321 319 317 317 316 316 315 315 315 315 315 315 315 315 316 315
191 201 195 198 193 190 188 177 170 172 174 182 178 180 180 187 186 177 183 187 189 190 189 189 199 230 299 312 324 333 332 331 330 329 326 323 322 322 321 320 319 319 319 319 319 318 317 316 316 316 316 316 317 316
213 209 198 188 190 188 185 182 175 182 179 183 177 177 197 194 183 179 186 189 188 186 189 201 222 271 303 318 328 332 332 332 329 326 324 323 324 325 324 323 323 322 321 321 320 319 318 317 317 316 316 316 315 315
222 215 210 200 194 193 193 188 182 179 183 178 178 193 202 185 179 182 183 185 186 189 198 217 255 295 309 323 330 331 330 329 327 326 326 325 325 323 322 321 321 321 322 322 322 322 321 320 320 319 319 318 317 316
220 212 208 205 200 197 190 184 185 187 187 182 191 198 200 194 188 187 183 182 186 195 213 240 279 305 316 323 327 327 327 328 326 326 325 324 323 324 323 323 324 324 323 323 324 324 324 324 323 322 320 319 318 316
202 200 201 199 195 192 187 189 192 203 191 188 195 191 180 188 190 187 183 184 192 210 236 270 298 311 319 322 325 327 327 326 327 327 326 326 326 326 326 325 324 324 325 326 326 326 327 326 325 324 323 321 320 318
173 181 185 188 191 191 189 194 205 195 192 196 197 192 182 186 191 190 191 190 206 234 261 286 303 312 316 321 324 325 325 327 326 324 325 327 327 328 328 327 328 328 330 330 329 329 329 328 327 325 323 322 321 319
Height
2928 2932 2936 2939 2942 2945 2948 2951 2954 2956 2958 2959 2960 2962 2963 2967 2970 2972 2974 2976 2977 2976 2977 2977 2978 2979 2979 2980 2981 2982 2982 2981 2981 2981 2982 2982 2983 2983 2983 2984 2985 2986 2985 2985 2985 2985 2983 2979 2980 2981 2979 2976 2977 2975
2918 2923 2927 2931 2935 2938 2941 2944 2948 2950 2952 2953 2955 2957 2959 2962 2966 2968 2970 2973 2975 2975 2975 2976 2976 2977 2978 2978 2980 2981 2983 2982 2982 2983 2983 2982 2983 2984 2984 2984 2984 2985 2985 2985 2987 2983 2977 2977 2977 2976 2974 2974 2975 2975
2909 2913 2918 2923 2926 2930 2934 2938 2941 2944 2946 2948 2950 2952 2956 2958 2962 2965 2967 2969 2971 2972 2973 2974 2975 2976 2975 2977 2978 2979 2981 2982 2982 2983 2983 2983 2983 2983 2983 2983 2983 2983 2981 2981 2980 2977 2973 2974 2975 2974 2975 2974 2975 2976
2900 2905 2909 2914 2919 2923 2928 2932 2935 2938 2941 2944 2946 2949 2952 2955 2958 2961 2963 2966 2968 2970 2970 2971 2972 2972 2973 2974 2976 2978 2979 2981 2982 2982 2983 2983 2983 2983 2983 2983 2982 2980 2979 2978 2977 2975 2974 2974 2972 2973 2973 2974 2974 2974
2891 2896 2901 2906 2911 2916 2921 2926 2929 2932 2936 2940 2942 2945 2948 2952 2955 2958 2960 2963 2966 2970 2968 2967 2968 2969 2970 2971 2973 2975 2977 2979 2980 2981 2982 2982 2982 2982 2981 2980 2978 2978 2977 2977 2975 2972 2974 2974 2973 2971 2971 2971 2971 2971
2883 2888 2893 2899 2904 2910 2915 2920 2924 2928 2932 2935 2938 2942 2945 2948 2953 2956 2958 2960 2962 2963 2966 2966 2966 2965 2965 2968 2971 2973 2975 2977 2978 2979 2980 2980 2981 2982 2980 2979 2979 2978 2977 2977 2977 2975 2975 2974 2973 2972 2971 2971 2970 2969
2875 2881 2886 2892 2898 2903 2909 2914 2919 2924 2929 2932 2936 2939 2943 2947 2951 2954 2956 2958 2958 2961 2962 2964 2964 2963 2964 2966 2968 2971 2973 2974 2976 2977 2977 2978 2979 2979 2977 2976 2977 2977 2976 2975 2975 2975 2974 2973 2973 2972 2971 2970 2969 2968
2869 2875 2880 2886 2892 2897 2904 2909 2915 2921 2926 2930 2934 2938 2942 2946 2949 2951 2953 2955 2956 2958 2960 2962 2961 2962 2963 2965 2967 2970 2971 2973 2974 2975 2975 2975 2976 2976 2974 2973 2974 2974 2974 2973 2973 2973 2972 2971 2970 2969 2968 2967 2965 2964
2863 2869 2875 2880 2886 2892 2899 2905 2911 2917 2923 2928 2933 2937 2940 2943 2947 2949 2952 2954 2955 2959 2958 2959 2960 2961 2962 2963 2964 2966 2968 2971 2972 2971 2973 2974 2972 2971 2970 2970 2970 2971 2971 2970 2970 2970 2969 2967 2966 2965 2964 2963 2962 2960
2858 2864 2870 2876 2882 2888 2894 2901 2907 2913 2920 2926 2931 2934 2938 2941 2946 2948 2951 2953 2954 2955 2956 2956 2958 2960 2962 2962 2963 2967 2967 2969 2968 2969 2969 2968 2965 2965 2966 2966 2966 2966 2966 2966 2966 2966 2964 2962 2961 2960 2960 2959 2958 2956
2854 2860 2866 2871 2876 2883 2890 2896 2903 2910 2916 2920 2926 2931 2936 2939 2945 2947 2949 2951 2952 2952 2952 2953 2956 2958 2959 2960 2963 2965 2965 2966 2965 2966 2966 2963 2959 2960 2961 2961 2961 2962 2962 2962 2962 2961 2960 2959 2958 2956 2955 2953 2952 2950
2852 2857 2861 2866 2872 2878 2884 2891 2899 2905 2911 2919 2924 2930 2936 2940 2941 2944 2945 2947 2947 2948 2948 2949 2951 2955 2958 2959 2960 2964 2964 2963 2962 2963 2962 2958 2957 2957 2957 2957 2957 2957 2958 2958 2957 2956 2956 2954 2952 2950 2948 2947 2946 2944
2849 2853 2857 2861 2866 2871 2878 2886 2894 2901 2910 2917 2923 2927 2931 2935 2935 2936 2937 2940 2942 2944 2945 2947 2949 2952 2956 2958 2959 2960 2960 2960 2960 2959 2957 2954 2954 2954 2954 2953 2953 2953 2953 2953 2951 2949 2947 2945 2944 2943 2942 2941 2940 2940
2846 2850 2854 2855 2859 2864 2870 2879 2889 2897 2906 2913 2916 2918 2925 2928 2929 2929 2933 2936 2941 2943 2945 2946 2948 2951 2954 2955 2955 2957 2958 2958 2956 2954 2952 2952 2952 2952 2952 2951 2949 2947 2946 2944 2941 2940 2939 2939 2938 2938 2937 2936 2935 2935
2848 2850 2853 2855 2858 2864 2872 2880 2886 2894 2902 2908 2909 2914 2919 2922 2926 2930 2931 2935 2939 2942 2944 2946 2948 2951 2952 2954 2955 2955 2955 2953 2952 2950 2950 2950 2950 2949 2948 2947 2945 2944 2943 2942 2940 2940 2939 2938 2938 2937 2936 2935 2934 2932
2852 2854 2856 2859 2862 2867 2872 2880 2887 2894 2899 2901 2906 2911 2917 2922 2924 2928 2930 2933 2936 2939 2942 2946 2948 2950 2951 2951 2951 2951 2951 2949 2949 2948 2948 2947 2947 2946 2945 2944 2943 2943 2942 2942 2941 2940 2939 2938 2936 2935 2934 2932 2931 2929
2856 2858 2862 2866 2868 2872 2878 2887 2892 2897 2902 2905 2908 2911 2916 2920 2923 2925 2928 2931 2935 2938 2941 2944 2946 2947 2947 2947 2948 2947 2947 2947 2947 2946 2946 2945 2944 2944 2943 2943 2943 2943 2942 2941 2940 2938 2937 2935 2934 2932 2930 2928 2927 2925
2859 2863 2867 2872 2876 2881 2886 2889 2892 2896 2901 2904 2908 2912 2915 2918 2921 2923 2927 2930 2934 2937 2941 2944 2945 2945 2945 2945 2945 2946 2945 2944 2944 2944 2943 2943 2943 2943 2943 2943 2942 2941 2940 2938 2937 2935 2933 2931 2929 2928 2926 2924 2922 2921
2863 2867 2871 2875 2880 2884 2887 2892 2897 2899 2903 2906 2909 2911 2914 2917 2920 2924 2927 2931 2935 2938 2942 2943 2944 2943 2944 2944 2944 2943 2943 2942 2942 2942 2942 2942 2942 2942 2941 2940 2939 2938 2936 2934 2932 2930 2928 2927 2925 2923 2921 2919 2918 2915
2868 2872 2875 2879 2883 2887 2890 2894 2897 2900 2903 2906 2909 2911 2914 2917 2921 2924 2928 2931 2934 2937 2940 2941 2942 2942 2943 2943 2942 2941 2941 2941 2942 2942 2942 2942 2941 2940 2939 2938 2936 2934 2932 2929 2928 2926 2924 2922 2920 2917 2915 2913 2911 2909
2873 2877 2880 2883 2886 2890 2892 2893 2896 2900 2903 2906 2909 2912 2915 2918 2921 2924 2928 2930 2933 2935 2937 2939 2941 2941 2941 2941 2941 2941 2941 2941 2942 2942 2941 2940 2939 2938 2936 2934 2932 2930 2928 2926 2924 2922 2920 2917 2915 2913 2910 2908 2905 2903
2876 2879 2882 2885 2887 2889 2891 2892 2895 2898 2902 2904 2908 2911 2915 2919 2921 2924 2927 2930 2932 2935 2937 2938 2939 2939 2939 2940 2940 2941 2941 2941 2941 2940 2939 2938 2937 2935 2933 2931 2929 2927 2925 2923 2920 2918 2915 2913 2910 2908 2905 2903 2900 2898
2880 2883 2886 2887 2888 2890 2893 2894 2897 2899 2902 2906 2909 2912 2915 2917 2920 2924 2926 2928 2931 2933 2935 2936 2937 2937 2938 2939 2940 2940 2941 2940 2940 2939 2938 2936 2934 2932 2929 2927 2925 2923 2921 2918 2916 2913 2911 2908 2905 2903 2900 2898 2895 2893
2884 2886 2888 2889 2890 2891 2894 2896 2898 2901 2903 2907 2910 2912 2915 2918 2921 2923 2925 2927 2929 2931 2933 2934 2935 2937 2938 2939 2939 2940 2940 2939 2937 2936 2934 2932 2930 2928 2926 2924 2922 2919 2917 2914 2911 2909 2906 2903 2900 2898 2895 2893 2890 2888
2887 2889 2891 2890 2892 2893 2895 2897 2899 2901 2903 2907 2910 2912 2915 2918 2920 2922 2923 2925 2927 2929 2931 2934 2936 2937 2938 2938 2939 2939 2938 2936 2935 2933 2931 2929 2927 2925 2923 2921 2918 2915 2913 2910 2907 2904 2901 2899 2896 2893 2891 2889 2886 2884
2886 2888 2889 2889 2892 2894 2896 2898 2900 2902 2905 2908 2910 2913 2916 2918 2921 2921 2922 2924 2927 2930 2932 2934 2935 2936 2938 2937 2937 2936 2935 2934 2932 2930 2929 2926 2925 2922 2920 2917 2914 2912 2908 2906 2903 2900 2898 2895 2892 2890 2887 2885 2883 2881
2886 2887 2888 2889 2891 2893 2896 2898 2900 2902 2905 2908 2911 2913 2917 2918 2918 2920 2922 2924 2926 2929 2931 2934 2935 2936 2936 2935 2935 2934 2933 2931 2930 2928 2925 2923 2921 2919 2916 2913 2910 2908 2905 2902 2899 2897 2894 2891 2889 2886 2884 2881 2879 2877
2886 2887 2888 2890 2892 2894 2896 2898 2900 2903 2905 2908 2911 2912 2914 2914 2917 2918 2921 2924 2926 2929 2931 2933 2934 2934 2934 2934 2933 2932 2930 2928 2926 2924 2922 2920 2918 2915 2912 2910 2907 2904 2901 2898 2896 2893 2891 2888 2885 2883 2880 2878 2876 2873
2885 2886 2888 2889 2891 2894 2895 2898 2899 2902 2904 2906 2909 2911 2912 2914 2915 2917 2920 2924 2926 2929 2930 2932 2932 2933 2933 2932 2931 2929 2928 2926 2924 2921 2919 2917 2914 2911 2908 2905 2903 2900 2897 2895 2893 2890 2888 2885 2882 2880 2877 2875 2872 2870
2884 2885 2887 2888 2891 2893 2896 2898 2900 2902 2904 2906 2909 2911 2912 2913 2915 2917 2920 2923 2926 2928 2930 2931 2931 2931 2931 2930 2928 2927 2925 2923 2920 2918 2915 2912 2910 2907 2904 2902 2899 2897 2894 2892 2889 2887 2884 2881 2879 2876 2873 2870 2868 2865
2881 2884 2885 2888 2890 2893 2895 2898 2900 2902 2904 2906 2909 2911 2912 2914 2915 2917 2920 2923 2925 2927 2929 2929 2930 2929 2929 2927 2926 2924 2922 2920 2917 2915 2912 2909 2907 2904 2901 2899 2896 2894 2891 2889 2886 2883 2881 2878 2875 2872 2869 2866 2863 2860
2878 2881 2884 2887 2890 2893 2895 2898 2900 2902 2904 2906 2909 2911 2913 2915 2917 2920 2921 2923 2925 2926 2927 2928 2928 2927 2926 2925 2923 2921 2919 2916 2914 2911 2908 2906 2903 2901 2898 2896 2894 2891 2888 2886 2883 2880 2877 2874 2871 2867 2864 2860 2857 2854
2879 2881 2884 2886 2890 2893 2896 2899 2900 2901 2904 2906 2908 2910 2912 2915 2917 2919 2921 2922 2924 2925 2925 2925 2925 2924 2923 2922 2920 2918 2915 2913 2910 2908 2905 2903 2900 2898 2896 2894 2891 2888 2886 2883 2880 2877 2873 2870 2866 2862 2858 2855 2851 2847